#timestamp,LO_Frequency,Hit 
1497369615.1,286047024.1,N
1497369616.0,286047024.1,N
1497369635.8,286047024.7,N
1497369655.6,286047023.1,N
1497369675.5,286047023.2,N
1497369695.3,286047022.5,N
1497369715.1,286047025.0,N
1497369735.9,286047024.2,N
1497369755.7,286047023.8,N
1497369775.6,286047024.2,N
1497369795.4,286047026.4,N
1497369815.2,286047024.1,N
1497369835.1,286047026.1,N
1497369836.0,286047026.1,N
1497369855.8,286047026.4,N
1497369875.6,286047024.3,N
1497369895.5,286047022.4,N
1497369915.3,286047023.0,N
1497369935.2,286047022.7,N
1497369955.9,286047022.7,N
1497369975.7,286047023.4,N
1497369995.6,286047022.5,N
1497370015.4,286047024.8,N
1497370035.2,286047023.3,N
1497370055.1,286047024.8,N
1497370056.0,286047024.8,N
1497370075.8,286047025.0,N
1497370095.7,286047022.1,N
1497370115.5,286047022.7,N
1497370135.3,286047024.7,N
1497370155.2,286047024.9,N
1497370175.0,286047022.5,N
1497370175.9,286047022.5,N
1497370195.8,286047026.4,N
1497370215.6,286047025.8,N
1497370235.4,286047025.9,N
1497370255.3,286047025.6,N
1497370275.1,286047023.8,N
1497370295.8,286047024.1,N
1497370315.7,286047024.4,N
1497370335.5,286047026.1,N
1497370355.4,286047023.9,N
1497370375.2,286047022.1,N
1497370395.0,286047022.5,N
1497370395.9,286047022.5,N
1497370415.8,286047025.0,N
1497370435.6,286047026.8,N
1497370455.4,286047023.8,N
1497370475.3,286047025.0,N
1497370495.1,286047024.4,N
1497370515.9,286047026.7,N
1497370535.7,286047025.8,N
1497370555.5,286047025.8,N
1497370575.4,286047026.7,N
1497370595.2,286047026.4,N
1497370615.1,286047026.2,N
1497370616.0,286047026.2,N
1497370635.8,286047025.9,N
1497370655.6,286047026.4,N
1497370675.5,286047025.4,N
1497370695.3,286047025.4,N
1497370715.1,286047025.8,N
1497370735.9,286047028.3,N
1497370755.7,286047028.4,N
1497370775.6,286047025.4,N
1497370795.4,286047025.6,N
1497370815.2,286047025.6,N
1497370835.1,286047027.2,N
1497370836.0,286047027.2,N
1497370855.8,286047027.6,N
1497370875.6,286047028.4,N
1497370895.5,286047028.3,N
1497370915.3,286047025.7,N
1497370935.2,286047028.4,N
1497370955.9,286047028.4,N
1497370975.7,286047027.3,N
1497370995.6,286047028.3,N
1497371015.4,286047029.9,N
1497371035.2,286047028.8,N
1497371055.1,286047029.9,N
1497371056.0,286047029.9,N
1497371075.8,286047028.8,N
1497371095.7,286047027.5,N
1497371115.5,286047027.9,N
1497371135.3,286047024.9,N
1497371155.2,286047024.5,N
1497371175.0,286047026.8,N
1497371175.9,286047026.8,N
1497371195.7,286047026.5,N
1497371215.6,286047027.9,N
1497371235.4,286047027.6,N
1497371255.3,286047028.3,N
1497371275.1,286047028.4,N
1497371276.0,286047028.4,N
1497371295.8,286047027.9,N
1497371315.7,286047028.1,N
1497371335.5,286047028.0,N
1497371355.3,286047028.2,N
1497371375.2,286047026.5,N
1497371395.0,286047026.8,N
1497371395.9,286047026.8,N
1497371415.8,286047022.2,N
1497371435.6,286047024.5,N
1497371455.4,286047026.6,N
1497371475.3,286047028.4,N
1497371495.1,286047023.8,N
1497371515.9,286047026.2,N
1497371535.7,286047028.4,N
1497371555.5,286047026.5,N
1497371575.4,286047026.4,N
1497371595.2,286047024.6,N
1497371615.0,286047026.3,N
1497371615.9,286047026.3,N
1497371635.8,286047026.2,N
1497371655.6,286047027.9,N
1497371675.4,286047028.2,N
1497371695.3,286047025.5,N
1497371715.1,286047025.3,N
1497371735.9,286047030.0,N
1497371755.7,286047027.6,N
1497371775.5,286047026.5,N
1497371795.4,286047024.3,N
1497371815.2,286047026.5,N
1497371835.0,286047027.8,N
1497371836.0,286047027.8,N
1497371855.8,286047028.6,N
1497371875.6,286047027.1,N
1497371895.5,286047027.2,N
1497371915.3,286047027.7,N
1497371935.1,286047027.9,N
1497371955.9,286047027.2,N
1497371975.7,286047029.5,N
1497371995.5,286047027.2,N
1497372015.4,286047028.0,N
1497372035.2,286047027.3,N
1497372055.1,286047027.4,N
1497372056.0,286047027.4,N
1497372075.8,286047028.3,N
1497372095.6,286047025.8,N
1497372115.5,286047025.6,N
1497372135.3,286047026.8,N
1497372155.1,286047025.7,N
1497372175.9,286047025.4,N
1497372195.7,286047027.7,N
1497372215.6,286047030.0,N
1497372235.4,286047027.5,N
1497372255.2,286047027.9,N
1497372275.1,286047030.0,N
1497372276.0,286047030.0,N
1497372295.8,286047027.5,N
1497372315.6,286047027.8,N
1497372335.5,286047025.3,N
1497372355.3,286047028.4,N
1497372375.2,286047026.2,N
1497372395.9,286047028.0,N
1497372415.7,286047027.7,N
1497372435.6,286047029.5,N
1497372455.4,286047027.0,N
1497372475.2,286047026.9,N
1497372495.1,286047029.8,N
1497372496.0,286047029.8,N
1497372515.8,286047029.7,N
1497372535.7,286047026.9,N
1497372555.5,286047027.3,N
1497372575.3,286047028.1,N
1497372595.2,286047027.4,N
1497372615.9,286047027.5,N
1497372635.7,286047026.9,N
1497372655.6,286047029.5,N
1497372675.4,286047029.9,N
1497372695.2,286047027.8,N
1497372715.1,286047029.8,N
1497372716.0,286047029.8,N
1497372735.8,286047030.2,N
1497372755.7,286047032.2,N
1497372775.5,286047034.8,N
1497372795.3,286047031.9,N
1497372815.2,286047034.4,N
1497372835.0,286047033.5,N
1497372835.9,286047033.5,N
1497372855.8,286047034.8,N
1497372875.6,286047031.9,N
1497372895.4,286047031.9,N
1497372915.3,286047034.5,N
1497372935.1,286047031.8,N
1497372955.8,286047034.6,N
1497372975.7,286047034.8,N
1497372995.5,286047034.7,N
1497373015.4,286047034.1,N
1497373035.2,286047033.0,N
1497373055.0,286047031.8,N
1497373055.9,286047031.8,N
1497373075.8,286047031.8,N
1497373095.6,286047032.8,Y
1497373115.4,286047005.7,N
1497373135.3,286047004.7,N
1497373155.1,286047004.7,N
1497373175.9,286047005.4,N
1497373195.7,286047005.6,N
